This is the latest recevied weather packets stored in our database for station/object OE6ACM-14. If no packets are shown the sender has not sent any weather packets the latest 10 day(s).
| Time | Temp. | Humidity | Pressure | Rain* | Wind** | Luminosity | Snow |
|---|---|---|---|---|---|---|---|
| 1777852444 | 8.33° C | 66% | 927.9 hPa | - | - | - | - |
| 1777852144 | 8.33° C | 66% | 927.9 hPa | - | - | - | - |
| 1777851844 | 8.33° C | 66% | 928 hPa | - | - | - | - |
| 1777851544 | 8.33° C | 66% | 928 hPa | - | - | - | - |
| 1777851244 | 8.33° C | 66% | 928 hPa | - | - | - | - |
| 1777850944 | 8.33° C | 65% | 928 hPa | - | - | - | - |
| 1777850644 | 8.33° C | 65% | 928 hPa | - | - | - | - |
| 1777850344 | 8.33° C | 65% | 928 hPa | - | - | - | - |
| 1777850044 | 8.33° C | 65% | 927.9 hPa | - | - | - | - |
| 1777849744 | 8.89° C | 64% | 927.9 hPa | - | - | - | - |
| 1777849444 | 8.89° C | 64% | 927.9 hPa | - | - | - | - |
| 1777849144 | 8.89° C | 65% | 927.9 hPa | - | - | - | - |
| 1777848844 | 8.89° C | 64% | 927.9 hPa | - | - | - | - |
| 1777848544 | 8.33° C | 64% | 927.9 hPa | - | - | - | - |
| 1777848244 | 8.89° C | 62% | 928 hPa | - | - | - | - |
| 1777847944 | 10° C | 62% | 928 hPa | - | - | - | - |
| 1777847644 | 9.44° C | 63% | 928 hPa | - | - | - | - |
| 1777847344 | 9.44° C | 62% | 928.1 hPa | - | - | - | - |
| 1777847044 | 9.44° C | 63% | 928 hPa | - | - | - | - |
| 1777846744 | 9.44° C | 63% | 928.1 hPa | - | - | - | - |
| 1777846444 | 8.89° C | 63% | 928.1 hPa | - | - | - | - |
| 1777846144 | 9.44° C | 60% | 928.2 hPa | - | - | - | - |
| 1777845844 | 10° C | 59% | 928 hPa | - | - | - | - |
| 1777845544 | 10.56° C | 61% | 928 hPa | - | - | - | - |
| 1777845244 | 10° C | 61% | 928.1 hPa | - | - | - | - |
* Rain since midnight (hover to see other rain measurements)
** Current wind speed in m/s (hover to see current wind gust speed)